Вернуться в каталог

STARLINK-35945

АктивенСвязьVLEO
NORAD 66925·PAYLOAD·🇺🇸 United States

Запущен Dec 7, 2025 с Vandenberg Space Force Base

Loading…

Ближайшие Пролёты (ближайшие 24 часа)

TLE

СвежийSource: CelesTrak SupGP

Эпоха: Sep 15, 2026, 02:48 UTC

1 66925C 25286A   26258.11715278 -.00047352  00000+0 -13991-2 0  2581
2 66925  53.1589 195.0940 0001402  79.2816  82.0448 15.34413219    19

Отслеживайте STARLINK-35945 в реальном времени с AllMySat

Download on the App Store